Weather History for KPNS - May, 2013

Change the Weather History Date:

Thursday, May 2, 2013

  Actual Average Record
Temperature  
Mean Temperature 71 °F 71 °F  
Max Temperature 77 °F 80 °F 89 °F (1901)
Min Temperature 64 °F 62 °F 50 °F (1909)
Degree Days  
Heating Degree Days 0 0  
Month to date heating degree days 0 0  
Since 1 July heating degree days 1167 1535  
Cooling Degree Days 6 6  
Month to date cooling degree days 13 12  
Year to date cooling degree days 182 160  
Growing Degree Days 20 (Base 50)    
Moisture  
Dew Point 64 °F    
Average Humidity 79    
Maximum Humidity 93    
Minimum Humidity 64    
Precipitation  
Precipitation 1.18 in 0.13 in 5.27 in (1937)
Month to date precipitation 1.28 0.25  
Year to date precipitation 21.70 20.07  
Sea Level Pressure  
Sea Level Pressure 29.95 in    
Wind  
Wind Speed 8 mph (ENE)    
Max Wind Speed 20 mph    
Max Gust Speed 29 mph    
Visibility 8 miles    
Events Rain    
T = Trace of Precipitation, MM = Missing Value Source: NWS Daily Summary

Daily Weather History Graph

Daily Weather History Graph

Search for Another Location

Airport or City:

Trip Planner

Search our weather history database for the weather conditions in past years. The results will help you decide how hot, cold, wet, or windy it might be!

Date:

Astronomy

May. 02, 2013 Rise Set
Actual Time 6:04 AM CDT 7:27 PM CDT
Civil Twilight 5:38 AM CDT 7:53 PM CDT
Nautical Twilight 5:08 AM CDT 8:23 PM CDT
Astronomical Twilight 4:36 AM CDT 8:55 PM CDT
Moon 1:20 AM CDT (5/2) 12:45 PM CDT (5/2)
Length of Visible Light 14h 14m
Length of Day
13h 23m
Waning Gibbous, 47% of the Moon is Illuminated
May 2
Waning Gibbous
May 9
New
May 17
First Quarter
May 24
Full
May 31
Last Quarter

Hourly Weather History & Observations

Time (CDT) Temp. Dew Point Humidity Pressure Visibility Wind Dir Wind Speed Gust Speed Precip Events Conditions
12:53 AM 71.1 °F 64.9 °F 81% 29.95 in 10.0 mi East 12.7 mph 21.9 mph N/A   Overcast
1:53 AM 71.1 °F 64.0 °F 78% 29.93 in 10.0 mi East 15.0 mph 24.2 mph N/A   Overcast
2:53 AM 70.0 °F 63.0 °F 78% 29.93 in 10.0 mi East 12.7 mph 19.6 mph N/A   Overcast
3:53 AM 70.0 °F 63.0 °F 78% 29.93 in 10.0 mi East 13.8 mph 23.0 mph N/A   Overcast
4:53 AM 69.1 °F 62.1 °F 78% 29.95 in 10.0 mi East 10.4 mph - N/A   Overcast
5:53 AM 69.1 °F 62.1 °F 78% 29.96 in 10.0 mi East 4.6 mph 17.3 mph 0.00 in Rain Light Rain
6:42 AM 64.4 °F 62.6 °F 94% 29.98 in 6.0 mi Calm Calm - 0.14 in Rain Rain
6:53 AM 64.0 °F 62.1 °F 93% 29.99 in 10.0 mi WNW 10.4 mph 16.1 mph 0.16 in Rain Light Rain
7:53 AM 64.9 °F 62.1 °F 90% 30.00 in 9.0 mi North 6.9 mph - 0.00 in Rain Light Rain
8:27 AM 64.4 °F 62.6 °F 94% 30.00 in 2.0 mi North 4.6 mph - 0.08 in Rain Heavy Rain
8:45 AM 64.4 °F 62.6 °F 94% 30.00 in 1.5 mi ENE 5.8 mph - 0.30 in Rain Heavy Rain
8:53 AM 64.0 °F 62.1 °F 93% 30.01 in 4.0 mi East 3.5 mph - 0.32 in Rain Light Rain
9:08 AM 64.4 °F 62.6 °F 94% 30.00 in 1.8 mi NNE 3.5 mph - 0.04 in Rain Heavy Rain
9:16 AM 64.4 °F 62.6 °F 94% 30.00 in 4.0 mi NNE 3.5 mph - 0.08 in Rain Rain
9:53 AM 66.0 °F 63.0 °F 90% 30.01 in 9.0 mi NNE 4.6 mph - 0.08 in   Overcast
10:53 AM 68.0 °F 63.0 °F 84% 30.01 in 10.0 mi NE 3.5 mph - N/A   Overcast
11:45 AM 71.6 °F 64.4 °F 78% 29.98 in 10.0 mi ENE 5.8 mph - N/A   Overcast
11:53 AM 72.0 °F 64.0 °F 76% 29.99 in 10.0 mi NE 5.8 mph - N/A   Mostly Cloudy
12:53 PM 73.9 °F 64.0 °F 71% 29.97 in 10.0 mi East 9.2 mph - N/A   Mostly Cloudy
1:53 PM 77.0 °F 64.0 °F 64% 29.96 in 10.0 mi East 11.5 mph 16.1 mph N/A   Mostly Cloudy
2:53 PM 75.0 °F 64.0 °F 69% 29.94 in 10.0 mi East 8.1 mph - N/A   Mostly Cloudy
3:06 PM 75.2 °F 64.4 °F 69% 29.93 in 10.0 mi ENE 8.1 mph - N/A   Mostly Cloudy
3:53 PM 75.9 °F 64.0 °F 67% 29.93 in 10.0 mi ENE 9.2 mph - N/A   Mostly Cloudy
4:53 PM 77.0 °F 64.0 °F 64% 29.91 in 10.0 mi ENE 6.9 mph - N/A   Overcast
5:53 PM 75.0 °F 64.9 °F 71% 29.91 in 8.0 mi NE 5.8 mph - 0.00 in Rain Light Rain
6:27 PM 71.6 °F 66.2 °F 83% 29.91 in 1.2 mi NE 12.7 mph 23.0 mph 0.01 in Rain Heavy Rain
6:35 PM 69.8 °F 64.4 °F 83% 29.90 in 0.8 mi NNE 6.9 mph 21.9 mph 0.32 in Rain Light Rain
6:38 PM 69.8 °F 66.2 °F 88% 29.90 in 2.5 mi NNE 8.1 mph - 0.33 in Rain Light Rain
6:45 PM 71.6 °F 66.2 °F 83% 29.90 in 10.0 mi NNE 5.8 mph - 0.33 in Rain Light Rain
6:53 PM 71.1 °F 66.0 °F 84% 29.92 in 10.0 mi East 9.2 mph - 0.33 in Rain Light Rain
7:11 PM 68.0 °F 64.4 °F 88% 29.91 in 2.5 mi ESE 8.1 mph - 0.05 in Rain Heavy Rain
7:22 PM 68.0 °F 64.4 °F 88% 29.91 in 4.0 mi Variable 5.8 mph - 0.21 in Rain Light Rain
7:38 PM 69.8 °F 66.2 °F 88% 29.92 in 8.0 mi East 11.5 mph 17.3 mph 0.22 in Rain Light Rain
7:53 PM 69.1 °F 66.0 °F 90% 29.94 in 6.0 mi East 10.4 mph 18.4 mph 0.28 in Rain Light Rain
8:00 PM 69.8 °F 66.2 °F 88% 29.93 in 10.0 mi East 9.2 mph - 0.00 in Rain Light Rain
8:11 PM 69.8 °F 66.2 °F 88% 29.93 in 10.0 mi East 6.9 mph - 0.00 in Rain Light Rain
8:53 PM 68.0 °F 64.0 °F 87% 29.94 in 10.0 mi ESE 3.5 mph - 0.00 in   Overcast
9:53 PM 68.0 °F 64.0 °F 87% 29.95 in 10.0 mi NE 5.8 mph - N/A   Overcast
10:53 PM 68.0 °F 64.0 °F 87% 29.96 in 10.0 mi NE 3.5 mph - 0.01 in   Overcast
11:53 PM 68.0 °F 64.0 °F 87% 29.95 in 10.0 mi Calm Calm - N/A   Overcast